Weather History for KRDU - August, 2014

Change the Weather History Date:

Tuesday, August 19, 2014

  Actual Average Record
Temperature  
Mean Temperature 78 °F 78 °F  
Max Temperature 86 °F 88 °F 103 °F (1988)
Min Temperature 69 °F 69 °F 58 °F (1977)
Degree Days  
Heating Degree Days 0 0  
Month to date heating degree days 0 0  
Since 1 June heating degree days 0 4  
Since 1 July heating degree days 0 0  
Cooling Degree Days 13 13  
Month to date cooling degree days 200 270  
Year to date cooling degree days 1213 1292  
Since 1 June cooling degree days 1000 1083  
Growing Degree Days 28 (Base 50)    
Moisture  
Dew Point 70 °F    
Average Humidity 77    
Maximum Humidity 97    
Minimum Humidity 57    
Precipitation  
Precipitation 0.00 in 0.13 in 2.08 in (2012)
Month to date precipitation 5.73 2.51  
Year to date precipitation 37.27 27.79  
Sea Level Pressure  
Sea Level Pressure 29.83 in    
Wind  
Wind Speed 3 mph (WNW)    
Max Wind Speed 6 mph    
Max Gust Speed 7 mph    
Visibility 9 miles    
Events Fog    
T = Trace of Precipitation, MM = Missing Value Source: NWS Daily Summary

Daily Weather History Graph

Daily Weather History Graph

Search for Another Location

Airport or City:

Trip Planner

Search our weather history database for the weather conditions in past years. The results will help you decide how hot, cold, wet, or windy it might be!

Date:

Astronomy

Aug. 19, 2014 Rise Set
Actual Time 6:36 AM EDT 7:59 PM EDT
Civil Twilight 6:09 AM EDT 8:26 PM EDT
Nautical Twilight 5:37 AM EDT 8:58 PM EDT
Astronomical Twilight 5:04 AM EDT 9:32 PM EDT
Moon 1:30 AM EDT (8/19) 3:51 PM EDT (8/19)
Length of Visible Light 14h 16m
Length of Day
13h 23m
Waning Crescent, 29% of the Moon is Illuminated
Aug 19
Waning Crescent
Aug 25
New
Sep 2
First Quarter
Sep 8
Full
Sep 15
Last Quarter

Hourly Weather History & Observations

Time (EDT) Temp. Heat Index Dew Point Humidity Pressure Visibility Wind Dir Wind Speed Gust Speed Precip Events Conditions
12:51 AM 71.6 °F - 69.8 °F 94% 29.81 in 9.0 mi South 5.8 mph - N/A Fog Patches of Fog
1:51 AM 73.0 °F - 69.1 °F 87% 29.80 in 10.0 mi SW 8.1 mph - N/A   Mostly Cloudy
2:51 AM 72.0 °F - 70.0 °F 93% 29.78 in 10.0 mi SW 3.5 mph - N/A   Mostly Cloudy
3:51 AM 71.1 °F - 68.0 °F 90% 29.78 in 9.0 mi Calm Calm - N/A Fog Patches of Fog
4:51 AM 70.0 °F - 68.0 °F 93% 29.78 in 7.0 mi Calm Calm - N/A Fog Patches of Fog
5:51 AM 69.1 °F - 66.9 °F 93% 29.79 in 4.0 mi WSW 3.5 mph - N/A Fog Patches of Fog
6:29 AM 69.8 °F - 68.0 °F 94% 29.82 in 5.0 mi Calm Calm - N/A Fog Patches of Fog
6:51 AM 70.0 °F - 68.0 °F 93% 29.81 in 5.0 mi Calm Calm - N/A Fog Patches of Fog
7:24 AM 69.8 °F - 68.0 °F 94% 29.83 in 8.0 mi Calm Calm - N/A   Mostly Cloudy
7:51 AM 72.0 °F - 70.0 °F 93% 29.83 in 8.0 mi Calm Calm - N/A   Mostly Cloudy
8:24 AM 73.4 °F - 69.8 °F 88% 29.84 in 8.0 mi North 4.6 mph - N/A   Mostly Cloudy
8:51 AM 73.0 °F - 70.0 °F 90% 29.84 in 7.0 mi Variable 3.5 mph - N/A   Overcast
9:51 AM 75.9 °F - 70.0 °F 82% 29.85 in 10.0 mi NW 3.5 mph - N/A   Mostly Cloudy
10:51 AM 78.1 °F - 71.1 °F 79% 29.86 in 10.0 mi Variable 3.5 mph - N/A   Mostly Cloudy
11:51 AM 80.1 °F 83.2 °F 70.0 °F 71% 29.86 in 10.0 mi Variable 3.5 mph - N/A   Mostly Cloudy
1:51 PM 82.9 °F 86.5 °F 69.1 °F 63% 29.86 in 10.0 mi Variable 4.6 mph - N/A   Mostly Cloudy
2:51 PM 84.9 °F 89.4 °F 70.0 °F 61% 29.84 in 10.0 mi Calm Calm - N/A   Scattered Clouds
3:51 PM 84.0 °F 87.8 °F 69.1 °F 61% 29.82 in 10.0 mi NE 6.9 mph - N/A   Scattered Clouds
4:51 PM 86.0 °F 90.4 °F 69.8 °F 58% 29.84 in 10.0 mi Variable 3.5 mph - N/A   Scattered Clouds
5:51 PM 86.0 °F 90.1 °F 69.1 °F 57% 29.82 in 10.0 mi NNE 4.6 mph - N/A   Scattered Clouds
6:51 PM 81.0 °F 84.9 °F 71.1 °F 72% 29.82 in 10.0 mi Calm Calm - N/A   Mostly Cloudy
7:51 PM 79.0 °F - 70.0 °F 74% 29.84 in 10.0 mi Calm Calm - N/A   Mostly Cloudy
8:51 PM 77.0 °F - 71.1 °F 82% 29.86 in 10.0 mi Calm Calm - N/A   Mostly Cloudy
9:51 PM 75.0 °F - 71.1 °F 87% 29.88 in 9.0 mi Calm Calm - N/A   Scattered Clouds
10:51 PM 75.2 °F - 71.6 °F 89% 29.89 in 9.0 mi Variable 4.6 mph - N/A   Scattered Clouds
11:51 PM 73.4 °F - 69.8 °F 88% 29.90 in 10.0 mi Calm Calm - N/A   Scattered Clouds